Scotia, California
Current Conditions -  °F | °C
As of 8:35 PM on Sunday 25 Jan 2015 (Local Time) from KFOT Reporting Station
Clear Clear  
Wind Chill: 55°   Ceiling: Unl
Heat Index: 55°   Visibility: 10mi
Dew Point: 50°   Wind: 9mph
Humidity: 82%   Direction: 140°SE
Pressure: 30.02"   Gusts: NA
Location:  40.48°N, 124.1°W
Report Text: KFOT 260435Z AUTO 14008KT 10SM CLR 13/10 A3002 RMK AO1
Loading
Personal Weather Stations






























Interactive Weather Map New forecast layout! Learn more

10-Day Weather Forecast

Advertisements
Track Severe Weather on mobile